Regional Weather Roundup
Issued by NWS Nashville, TN

Home | Current Version | Previous Version | Text Only | Print | Product List | Glossary On
Versions: 1 2 3 4 5 6 7 8 9 10 11 12 13 14 15 16 17 18 19 20 21 22 23 24 25 26 27 28 29 30 31 32 33 34 35 36 37 38 39 40 41 42 43 44 45 46 47 48 49 50
000
ASUS44 KOHX 271800
RWROHX
MIDDLE TENNESSEE HOURLY WEATHER ROUNDUP
NATIONAL WEATHER SERVICE NASHVILLE TN
1200 PM CST TUE JAN 27 2015

NOTE: "FAIR" INDICATES FEW OR NO CLOUDS BELOW 12,000 FEET WITH
NO SIGNIFICANT WEATHER AND/OR OBSTRUCTIONS TO VISIBILITY.

* THESE REPORTS ARE NOT UNDER NWS QUALITY CONTROL AND MAY NOT
  REPORT WEATHER SUCH AS PRECIPITATION AND FOG.


TNZ005>011-023>034-057-059-062>066-078-080-271900
...NORTHERN MIDDLE TENNESSEE...

CITY           SKY/WX    TMP DP  RH WIND       PRES   REMARKS
CLARKSVILLE    CLOUDY    39  32  76 N10       30.11R WCI  32
CROSSVILLE     CLOUDY    32  28  85 N8        29.99S WCI  25
NASHVILLE      CLOUDY    40  32  73 N9        30.08S WCI  34
SPARTA         PTSUNNY   36  32  87 NW7       30.03S WCI  30
$$
TNZ056-058-060-061-075>077-079-093>097-271900
...SOUTHERN MIDDLE TENNESSEE...

CITY           SKY/WX    TMP DP  RH WIND       PRES   REMARKS
COLUMBIA       MOSUNNY   46  37  71 NW9       30.05S
MCMINNVILLE    CLOUDY    36  34  93 N8        30.03F WCI  29
SHELBYVILLE    PTSUNNY   43  34  70 N10       30.05F
TULLAHOMA      CLOUDY    39  30  70 N15       30.03F WCI  31
WINCHESTER     CLOUDY    39  30  70 N10       30.04R WCI  32
$$


...KEY TO REMARKS...
VSB - VISIBILITY IN MILES
WCI - WIND CHILL INDEX
HX  - HEAT INDEX




USA.gov is the U.S. government's official web portal to all federal, state and local government web resources and services.